This is the latest recevied weather packets stored in our database for station/object KF0FSA. If no packets are shown the sender has not sent any weather packets the latest 10 day(s).
| Time | Temp. | Humidity | Pressure | Rain* | Wind** | Luminosity | Snow |
|---|---|---|---|---|---|---|---|
| 1777904369 | 15.56° C | 43% | 949.3 hPa | 0 mm | - | 516 W/m² | - |
| 1777904068 | 15.56° C | 43% | 949.2 hPa | 0 mm | - | 484 W/m² | - |
| 1777903769 | 15.56° C | 45% | 949.2 hPa | 0 mm | - | 461 W/m² | - |
| 1777903468 | 15.56° C | 48% | 949.2 hPa | 0 mm | - | 419 W/m² | - |
| 1777903290 | 15.56° C | 52% | 949.1 hPa | 0 mm | - | 331 W/m² | - |
| 1777902866 | 15° C | 51% | 949 hPa | 0 mm | - | 348 W/m² | - |
| 1777902690 | 15° C | 52% | 949 hPa | 0 mm | - | 318 W/m² | - |
| 1777902266 | 15° C | 54% | 948.9 hPa | 0 mm | - | 349 W/m² | - |
| 1777901965 | 14.44° C | 55% | 948.9 hPa | 0 mm | - | 307 W/m² | - |
| 1777901664 | 14.44° C | 56% | 948.8 hPa | 0 mm | - | 303 W/m² | - |
| 1777901365 | 14.44° C | 58% | 948.8 hPa | 0 mm | - | 317 W/m² | - |
| 1777901064 | 13.89° C | 59% | 948.8 hPa | 0 mm | - | 294 W/m² | - |
| 1777900762 | 13.89° C | 60% | 948.8 hPa | 0 mm | - | 281 W/m² | - |
| 1777900462 | 13.33° C | 61% | 948.8 hPa | 0 mm | - | 252 W/m² | - |
| 1777900162 | 13.33° C | 61% | 948.7 hPa | 0 mm | - | 146 W/m² | - |
| 1777899862 | 13.33° C | 61% | 948.5 hPa | 0 mm | - | 231 W/m² | - |
| 1777899562 | 13.33° C | 61% | 948.4 hPa | 0 mm | - | 213 W/m² | - |
| 1777899262 | 12.78° C | 61% | 948.4 hPa | 0 mm | - | 190 W/m² | - |
| 1777899078 | 12.78° C | 61% | 948.3 hPa | 0 mm | - | 181 W/m² | - |
| 1777898662 | 12.78° C | 62% | 948.2 hPa | 0 mm | - | 166 W/m² | - |
| 1777898354 | 12.78° C | 62% | 948.1 hPa | 0 mm | - | 146 W/m² | - |
| 1777898053 | 12.78° C | 62% | 948.2 hPa | 0 mm | - | 136 W/m² | - |
| 1777897753 | 12.22° C | 62% | 948.1 hPa | 0 mm | - | 122 W/m² | - |
| 1777897454 | 11.67° C | 64% | 948 hPa | 0 mm | - | 100 W/m² | - |
| 1777897154 | 11.67° C | 64% | 947.9 hPa | 0 mm | - | 90 W/m² | - |
* Rain latest hour (hover to see other rain measurements)
** Current wind speed in m/s (hover to see current wind gust speed)